EHI
0 0 0 0 0 0 0 0 0 0 0 0 0 1 8 20 27 30 34 36 37 34 31 35 43 45 46 45 39 32 25 16 11 10 6 2 0 0 0 0 0 0 0 0
0 0 0 0 0 0 0 0 0 0 0 0 0 1 7 15 21 27 32 35 37 37 35 38 45 47 46 45 40 34 28 21 15 11 7 3 1 0 0 0 0 0 0 0
0 0 0 0 0 0 0 0 0 0 0 0 0 1 4 7 12 19 28 33 37 41 41 43 47 46 43 40 38 35 30 25 19 14 9 5 3 2 2 1 0 0 0 0
0 0 0 0 0 0 0 0 0 0 0 0 0 0 1 3 5 13 24 33 38 41 43 44 44 40 36 33 33 33 30 26 21 17 13 9 7 6 5 3 1 0 0 0
0 0 0 0 0 0 0 0 0 0 0 0 0 0 0 1 2 9 23 33 36 38 41 41 39 34 30 28 29 29 27 25 22 20 18 15 10 7 5 3 1 0 0 0
0 0 0 0 0 0 0 0 0 0 0 0 0 0 0 0 0 6 20 30 32 34 38 39 38 35 32 29 27 27 25 23 21 21 20 17 12 7 3 1 0 0 0 0
0 0 0 0 0 0 0 0 0 0 0 0 0 0 0 0 0 5 17 27 29 30 32 34 36 39 39 35 31 28 25 22 20 21 20 16 11 7 3 1 0 0 0 0
0 0 0 0 0 0 0 0 0 0 0 0 0 0 0 1 2 7 17 24 25 24 25 29 33 38 39 36 31 28 25 22 21 21 19 14 9 5 3 1 0 0 1 1
0 0 0 0 0 0 0 0 0 0 0 0 0 0 0 2 4 9 16 21 20 19 23 28 30 32 30 26 23 22 21 20 19 19 16 11 6 4 3 2 1 0 0 0
0 0 0 0 0 0 0 0 0 0 0 0 0 0 0 2 6 9 12 15 16 17 22 26 26 23 19 15 14 14 14 14 14 13 11 8 5 3 3 2 1 0 0 0
0 0 0 0 0 0 0 0 0 0 0 0 0 0 0 2 7 10 10 11 15 18 21 21 20 17 14 12 11 9 8 8 8 7 6 4 3 2 2 2 1 0 0 0
0 0 0 0 0 0 0 0 0 0 0 0 0 0 0 3 8 12 13 14 18 21 19 17 16 15 14 12 9 6 5 4 3 2 2 1 1 1 1 1 0 0 0 0
0 0 0 0 0 0 0 0 0 0 0 0 0 0 0 3 8 14 18 21 23 23 18 16 16 15 14 11 6 4 3 2 1 0 0 0 0 0 0 0 0 0 0 0
0 0 0 0 0 0 0 0 0 0 0 0 0 0 0 3 8 14 20 24 25 23 19 17 16 14 12 8 4 3 2 1 0 0 1 1 0 0 0 0 0 0 0 0
0 0 0 0 0 0 0 0 0 0 0 0 0 0 0 3 8 13 18 24 28 25 20 15 12 11 9 6 4 2 1 0 0 0 1 1 0 0 0 0 0 0 0 0
0 0 0 0 0 0 0 0 0 0 0 0 0 0 1 4 9 14 18 25 29 27 20 13 9 9 8 6 4 2 1 0 0 0 0 0 0 0 0 0 0 0 0 0
0 0 0 0 0 0 0 0 0 0 0 0 0 1 3 7 12 15 18 24 28 25 17 10 7 7 6 4 2 1 1 0 0 0 0 0 0 0 0 0 0 0 0 0
0 0 0 0 0 0 0 0 0 0 0 0 0 2 5 10 12 14 15 18 22 20 12 6 4 3 2 1 0 0 0 0 0 0 0 0 0 0 0 0 0 0 0 0
0 0 0 0 0 0 0 0 0 0 0 0 1 4 9 13 13 11 10 12 15 13 8 4 1 0 0 0 0 0 0 0 0 0 0 0 0 0 0 0 0 0 0 0
0 0 0 0 0 0 0 0 0 0 0 1 2 7 13 14 11 8 7 9 9 7 4 2 0 0 0 0 0 0 0 0 0 0 0 0 0 0 0 0 0 0 0 0
0 0 0 0 0 0 0 0 0 0 0 1 3 8 11 10 7 7 9 9 8 5 3 0 0 0 0 0 0 0 0 0 0 0 0 0 0 0 0 0 0 0 0 0
0 0 0 0 0 0 0 0 0 0 0 1 3 7 8 7 7 9 11 10 9 7 3 0 0 0 0 0 0 0 0 0 0 0 0 0 0 0 0 0 0 0 0 0
0 0 0 0 0 0 0 0 0 0 0 1 3 5 8 9 10 12 12 11 8 6 3 1 0 0 0 0 0 0 0 0 0 0 0 0 0 0 0 0 0 0 0 0
0 0 0 0 0 0 0 0 0 1 2 3 4 7 9 11 12 11 10 9 7 5 3 2 1 0 0 0 0 0 0 0 0 0 0 0 0 0 0 0 0 0 0 0
0 0 0 0 0 0 0 0 1 4 6 7 7 8 10 11 11 9 7 6 5 4 3 2 1 0 0 0 0 0 0 0 0 0 0 0 0 0 0 0 0 0 0 0
0 0 0 0 0 0 0 0 1 5 8 9 9 9 10 11 10 7 5 4 4 3 2 1 0 0 0 0 0 0 0 0 0 0 0 0 0 0 0 0 0 0 0 0
Wind_Speed
3 4 4 6 6 4 2 1 5 7 5 2 3 4 4 1 3 5 5 6 8 9 6 5 7 8 8 8 9 9 9 8 7 5 5 5 4 4 4 4 5 6 6 6
4 3 7 4 4 3 2 3 5 7 3 1 2 4 3 1 4 6 7 8 8 6 5 6 7 8 9 10 10 9 9 9 8 6 5 3 3 3 3 3 4 6 6 6
6 5 3 5 3 3 3 4 5 5 6 5 2 5 4 2 1 2 3 4 5 8 8 8 8 8 9 9 10 10 10 9 9 7 4 3 3 2 2 3 4 5 6 7
5 5 3 3 4 5 5 6 6 3 1 4 2 3 6 3 3 3 4 4 5 6 6 6 7 8 9 10 9 8 9 8 8 8 7 8 6 5 5 4 4 4 6 6
6 4 5 6 6 8 7 2 2 1 2 1 3 1 8 2 4 6 5 4 4 5 7 7 8 8 8 8 8 8 7 8 8 7 8 7 5 4 3 3 5 4 4 5
5 4 5 6 4 6 4 5 5 5 5 1 2 2 7 4 6 5 4 3 3 6 6 6 5 6 6 6 7 7 7 7 7 8 8 8 7 6 5 5 5 4 3 3
3 3 4 4 1 1 4 6 5 5 5 5 3 2 9 7 5 5 5 3 3 5 6 6 6 6 6 7 7 7 7 7 7 7 7 7 7 7 7 6 6 5 4 4
4 6 5 6 8 6 5 9 8 5 4 5 3 4 8 5 4 2 3 4 4 4 4 5 6 6 6 6 6 7 7 7 7 7 7 6 7 5 4 5 5 6 5 5
7 7 5 4 5 11 7 4 7 8 3 1 5 7 8 2 2 2 3 5 5 4 5 5 6 6 6 7 6 6 7 6 6 7 6 6 6 6 6 5 4 4 4 4
10 4 4 2 4 3 6 10 7 7 6 3 4 5 5 5 4 3 4 5 4 4 5 5 5 5 5 5 5 5 5 5 5 5 5 5 5 5 5 5 5 5 5 4
7 5 3 2 4 7 5 5 6 5 6 7 3 8 8 8 7 7 6 6 6 6 6 6 5 5 5 4 4 4 4 4 4 4 4 4 4 4 4 4 5 5 4 4
6 7 4 7 4 4 6 8 9 7 5 5 5 9 5 5 5 6 6 6 5 6 6 6 6 5 5 4 4 4 4 4 4 4 3 3 3 3 3 3 3 4 4 4
7 7 2 6 4 1 3 5 5 7 7 6 5 9 3 0 2 4 6 6 6 7 6 5 5 5 5 5 4 4 4 4 3 3 3 3 3 3 3 3 3 3 4 3
7 6 8 10 9 5 4 5 6 7 6 6 8 8 6 4 5 5 6 6 6 6 6 6 5 5 5 5 4 4 4 3 4 4 4 3 2 2 2 2 2 2 3 3
5 4 5 5 4 4 4 6 8 7 9 10 9 9 11 10 9 8 7 8 8 7 6 6 6 5 5 5 4 4 4 3 4 4 3 2 2 2 2 2 2 2 2 3
3 3 2 2 3 4 3 4 7 6 5 6 4 8 8 3 4 6 8 10 9 8 8 7 6 6 6 6 5 4 4 4 4 4 3 3 3 3 3 3 3 3 3 3
1 4 4 2 1 3 4 6 6 5 5 7 8 9 4 4 8 10 10 11 10 10 9 8 7 7 6 6 5 5 4 4 5 4 4 3 3 4 3 3 4 3 3 3
4 4 4 2 3 5 9 3 4 5 4 6 6 4 6 7 6 4 6 9 9 10 9 8 7 7 5 5 5 5 5 5 5 4 4 3 4 4 4 4 4 3 3 3
5 7 5 4 3 4 5 1 2 3 4 4 5 4 4 6 5 1 2 6 9 9 8 8 7 7 6 6 6 6 6 5 5 4 4 3 4 4 4 4 3 3 4 4
4 4 6 4 4 6 6 3 2 2 3 2 4 6 7 8 5 5 4 6 6 6 6 7 7 7 7 6 6 7 6 5 4 4 3 3 4 4 4 3 3 3 4 4
3 3 4 4 3 6 5 6 1 4 7 3 4 6 8 6 5 4 7 7 7 7 7 7 8 7 6 6 7 7 5 4 4 4 4 4 4 4 4 4 4 4 4 5
3 3 3 4 4 7 4 3 2 5 3 2 3 5 6 5 6 7 8 8 9 8 8 7 7 5 4 5 7 6 5 4 5 5 5 5 4 4 4 4 4 4 5 6
2 4 4 5 6 4 3 4 5 3 2 2 3 5 8 8 7 8 8 8 8 8 8 7 7 6 4 3 5 6 5 5 5 6 5 5 5 4 4 4 4 4 4 4
2 1 2 2 4 4 4 3 3 1 1 2 4 6 8 9 9 9 8 7 7 7 7 7 8 7 5 4 4 4 5 5 6 6 5 4 5 4 4 3 3 3 3 4
3 1 0 2 4 4 4 4 4 4 4 6 6 5 7 11 10 9 9 8 6 6 5 6 7 6 5 4 5 4 4 5 6 6 5 5 4 5 5 4 4 3 2 2
3 4 4 4 4 3 4 4 3 3 3 5 7 7 6 7 9 9 8 7 7 6 6 6 6 6 5 5 5 4 3 5 6 6 5 4 4 4 4 5 6 10 8 9
Wind_Direction
95 91 194 205 186 177 160 253 286 274 286 301 288 291 289 196 163 180 188 192 194 205 198 168 165 167 167 169 175 179 182 176 169 168 172 175 186 183 182 190 184 180 180 180
58 251 225 179 164 168 193 282 288 296 334 0 311 316 317 203 201 197 199 201 197 187 171 169 165 170 177 177 181 185 188 180 179 183 177 171 161 172 174 180 182 183 184 185
178 228 170 156 173 190 225 214 242 270 333 8 16 338 329 318 279 235 220 204 191 185 185 180 174 174 175 180 187 192 191 184 183 172 148 127 111 104 145 180 188 192 192 191
215 240 195 191 208 176 254 229 217 246 360 315 25 300 292 296 295 260 246 213 192 184 178 175 170 176 181 186 186 185 180 181 181 168 171 171 177 180 188 185 187 185 193 192
222 206 187 209 215 176 217 206 184 232 162 352 360 167 284 314 272 256 250 230 188 175 169 175 178 182 179 178 177 176 171 177 178 177 182 183 186 184 168 166 175 186 196 198
223 219 197 206 203 182 174 73 54 46 71 23 279 185 277 254 241 260 247 232 184 163 159 161 160 156 156 159 163 165 168 177 177 179 181 185 185 177 171 178 186 191 191 197
271 263 230 186 160 73 113 92 32 5 16 256 282 221 253 259 253 246 238 215 164 151 147 146 148 154 153 155 160 162 171 181 180 181 184 188 188 185 189 189 193 190 188 198
192 271 236 193 181 176 167 139 154 186 217 276 316 243 259 275 289 254 184 156 136 130 139 148 152 151 152 156 162 167 178 185 180 183 190 189 186 188 196 196 193 195 199 202
177 245 276 230 189 148 140 169 155 128 152 290 290 291 301 294 1 86 124 135 137 135 140 138 140 147 154 157 169 179 180 180 181 185 186 186 188 190 197 197 193 198 202 200
155 214 283 294 106 61 142 142 110 123 145 222 288 284 257 264 246 202 173 162 147 137 136 134 139 147 149 149 153 161 162 170 174 174 180 184 186 193 193 186 191 197 200 194
143 168 287 358 174 170 113 110 109 114 145 154 223 267 231 222 216 199 196 176 159 154 149 144 144 143 136 127 135 139 143 144 150 164 171 174 181 183 182 190 196 196 194 189
155 138 225 259 257 182 160 162 146 148 192 170 171 261 269 229 218 189 181 172 159 151 146 144 141 132 130 133 137 137 140 144 154 154 154 165 165 162 175 191 194 187 191 191
143 129 120 332 333 147 168 165 150 122 118 149 168 259 295 259 179 180 172 166 157 148 143 141 138 138 140 137 133 132 137 143 140 138 142 143 147 156 172 188 190 185 187 185
127 127 164 193 211 193 178 166 148 127 144 185 213 239 275 239 208 195 176 162 153 150 149 145 143 143 140 133 132 128 125 131 134 133 136 139 144 150 162 161 164 171 163 163
113 160 199 216 208 179 186 176 168 174 178 180 218 219 237 223 205 191 171 156 152 154 154 154 153 150 141 132 130 128 123 118 118 114 112 117 113 109 114 123 130 130 137 145
72 148 162 236 208 200 208 200 183 194 182 199 210 243 245 211 158 167 168 164 167 168 166 162 154 149 144 141 139 133 120 112 109 109 104 97 98 94 93 94 98 105 111 112
72 113 117 229 278 121 233 212 185 190 192 177 203 228 183 170 185 186 180 176 176 174 170 169 164 159 153 151 146 141 129 117 113 111 105 99 101 100 91 91 91 95 97 100
145 112 121 133 112 198 240 245 185 179 210 207 216 215 188 193 180 163 166 173 172 172 169 168 162 155 149 141 132 129 122 120 118 112 108 103 102 101 96 94 91 87 90 92
164 138 121 123 163 254 294 278 154 169 248 216 196 180 148 123 91 65 182 168 170 171 166 160 156 145 140 139 135 128 126 123 119 118 116 116 115 108 101 97 91 89 94 88
69 103 117 127 149 213 239 291 304 125 267 242 177 170 155 136 147 222 178 147 139 138 140 140 133 127 135 139 133 129 133 132 135 135 127 118 118 116 110 102 93 91 98 97
49 61 122 150 188 251 264 301 3 162 235 230 179 174 166 173 182 154 130 127 125 123 125 128 128 132 140 139 136 136 136 141 143 130 119 113 114 116 114 108 100 101 105 102
158 141 163 144 173 244 313 358 176 228 267 201 169 164 151 132 110 113 120 122 122 118 119 122 120 115 116 133 139 138 140 138 131 126 120 115 113 115 114 114 109 107 113 109
189 185 185 189 211 250 285 259 273 255 233 218 157 148 137 127 118 115 117 117 118 121 121 117 120 116 106 114 134 138 135 128 127 125 122 116 108 102 105 115 117 110 110 113
282 156 161 268 281 300 309 311 326 335 185 127 128 136 134 126 124 119 119 117 117 118 119 119 120 121 116 108 109 120 125 126 125 124 120 116 112 104 96 97 105 114 121 126
251 201 148 281 293 328 337 346 351 23 62 90 97 105 124 124 124 124 124 120 117 112 112 120 124 124 120 113 104 103 117 126 125 121 118 114 111 112 100 86 73 92 84 126
224 191 182 227 238 220 271 305 344 63 84 100 101 95 98 116 121 118 118 118 119 118 115 114 114 117 115 112 105 101 110 125 127 125 123 118 114 112 114 111 86 61 72 78